CES1213 ZPPP-ZPDL

Flight info

Callsign CES1213
Flight time 0h 34m
Altitude 23600
Route SGM H90 P73 UPGE56
Aircraft B737/M-SDE2E3FGHIRWXY/LB1

Departure

Time 2026-05-06 12:40
Airport Kunming Changshui International Airport (ZPPP)

Arrival

Time 2026-05-06 13:15
Airport Dali Fengyi Airport (ZPDL)
Time Latitude Longitude Altitude Speed Heading
2026-05-06 12:34 25.11956 102.93682 6914 ft 0 kts 308°
2026-05-06 12:36 25.11963 102.93671 6914 ft 9 kts 303°
2026-05-06 12:36 25.12012 102.93629 6914 ft 9 kts 44°
2026-05-06 12:36 25.12069 102.93671 6914 ft 9 kts 36°
2026-05-06 12:36 25.12123 102.93721 6914 ft 10 kts 38°
2026-05-06 12:37 25.12231 102.93815 6914 ft 26 kts 38°
2026-05-06 12:37 25.12381 102.93941 6914 ft 27 kts 37°
2026-05-06 12:37 25.12533 102.94063 6914 ft 27 kts 36°
2026-05-06 12:37 25.12688 102.94182 6914 ft 25 kts 33°
2026-05-06 12:38 25.12821 102.94309 6914 ft 25 kts 36°
2026-05-06 12:38 25.12957 102.94257 6914 ft 23 kts 318°
2026-05-06 12:38 25.12996 102.94114 6914 ft 22 kts 224°
2026-05-06 12:38 25.12875 102.94006 6914 ft 22 kts 219°
2026-05-06 12:39 25.12757 102.93896 6914 ft 21 kts 221°
2026-05-06 12:39 25.12641 102.93797 6914 ft 20 kts 208°
2026-05-06 12:39 25.12525 102.93700 6914 ft 20 kts 220°
2026-05-06 12:39 25.12412 102.93606 6914 ft 20 kts 218°
2026-05-06 12:40 25.12286 102.93495 6914 ft 33 kts 219°
2026-05-06 12:40 25.11903 102.93160 6915 ft 116 kts 213°
2026-05-06 12:40 25.11067 102.92465 7282 ft 168 kts 217°
2026-05-06 12:40 25.10155 102.91777 8560 ft 164 kts 214°
2026-05-06 12:41 25.09214 102.91189 9557 ft 167 kts 221°
2026-05-06 12:41 25.08646 102.90095 10329 ft 182 kts 265°
2026-05-06 12:41 25.08849 102.88671 11225 ft 199 kts 280°
2026-05-06 12:41 25.09030 102.87141 12143 ft 212 kts 272°
2026-05-06 12:42 25.09028 102.85487 13070 ft 227 kts 269°
2026-05-06 12:42 25.08974 102.83731 13976 ft 243 kts 269°
2026-05-06 12:42 25.08915 102.81822 14915 ft 259 kts 269°
2026-05-06 12:42 25.08862 102.79791 15848 ft 275 kts 269°
2026-05-06 12:43 25.08809 102.77627 16749 ft 292 kts 269°
2026-05-06 12:43 25.08755 102.75373 17592 ft 309 kts 269°
2026-05-06 12:43 25.08696 102.72942 18403 ft 326 kts 269°
2026-05-06 12:43 25.08634 102.70401 19167 ft 344 kts 269°
2026-05-06 12:44 25.08567 102.67715 19886 ft 360 kts 268°
2026-05-06 12:44 25.08496 102.64900 20601 ft 376 kts 268°
2026-05-06 12:44 25.08421 102.61959 21253 ft 392 kts 268°
2026-05-06 12:44 25.08343 102.58884 21870 ft 408 kts 268°
2026-05-06 12:45 25.08262 102.55738 22692 ft 417 kts 268°
2026-05-06 12:45 25.08180 102.52586 23574 ft 420 kts 268°
2026-05-06 12:45 25.07929 102.46120 23788 ft 419 kts 267°
2026-05-06 12:46 25.07761 102.42950 23789 ft 419 kts 266°
2026-05-06 12:46 25.07581 102.39747 23786 ft 419 kts 266°
2026-05-06 12:46 25.07401 102.36548 23783 ft 420 kts 266°
2026-05-06 12:46 25.07220 102.33315 23782 ft 420 kts 266°
2026-05-06 12:47 25.07045 102.30139 23777 ft 420 kts 266°
2026-05-06 12:47 25.06870 102.26917 23771 ft 420 kts 266°
2026-05-06 12:47 25.06697 102.23723 23768 ft 420 kts 266°
2026-05-06 12:47 25.06524 102.20503 23761 ft 421 kts 266°
2026-05-06 12:48 25.06350 102.17267 23750 ft 420 kts 266°
2026-05-06 12:48 25.06179 102.14083 23746 ft 421 kts 266°
2026-05-06 12:48 25.06004 102.10836 23739 ft 420 kts 266°
2026-05-06 12:48 25.05832 102.07655 23729 ft 421 kts 266°
2026-05-06 12:49 25.05656 102.04416 23721 ft 421 kts 266°
2026-05-06 12:49 25.05483 102.01224 23713 ft 421 kts 266°
2026-05-06 12:49 25.05306 101.97981 23710 ft 421 kts 266°
2026-05-06 12:49 25.05130 101.94787 23715 ft 421 kts 266°
2026-05-06 12:50 25.04953 101.91563 23718 ft 419 kts 266°
2026-05-06 12:50 25.04778 101.88387 23726 ft 421 kts 266°
2026-05-06 12:50 25.04597 101.85143 23734 ft 420 kts 266°
2026-05-06 12:50 25.04420 101.81961 23742 ft 420 kts 266°
2026-05-06 12:51 25.04239 101.78725 23746 ft 419 kts 266°
2026-05-06 12:51 25.04060 101.75526 23747 ft 420 kts 266°
2026-05-06 12:51 25.03879 101.72321 23747 ft 420 kts 266°
2026-05-06 12:51 25.03699 101.69128 23745 ft 422 kts 266°
2026-05-06 12:52 25.03517 101.65929 23744 ft 420 kts 266°
2026-05-06 12:52 25.03334 101.62721 23746 ft 421 kts 266°
2026-05-06 12:52 25.03148 101.59467 23752 ft 421 kts 266°
2026-05-06 12:52 25.02969 101.56290 23758 ft 421 kts 267°
2026-05-06 12:53 25.02890 101.53036 23760 ft 421 kts 270°
2026-05-06 12:53 25.03007 101.49846 23761 ft 421 kts 273°
2026-05-06 12:53 25.03242 101.46622 23764 ft 421 kts 275°
2026-05-06 12:53 25.03531 101.43432 23769 ft 421 kts 275°
2026-05-06 12:54 25.03845 101.40196 23766 ft 421 kts 276°
2026-05-06 12:54 25.04160 101.36994 23769 ft 422 kts 276°
2026-05-06 12:54 25.04469 101.33803 23768 ft 422 kts 275°
2026-05-06 12:54 25.04778 101.30559 23766 ft 420 kts 275°
2026-05-06 12:55 25.05077 101.27348 23766 ft 421 kts 275°
2026-05-06 12:55 25.05372 101.24139 23767 ft 422 kts 275°
2026-05-06 12:55 25.05662 101.20933 23774 ft 421 kts 275°
2026-05-06 12:55 25.05949 101.17736 23784 ft 420 kts 275°
2026-05-06 12:56 25.06234 101.14539 23793 ft 421 kts 275°
2026-05-06 12:56 25.06517 101.11348 23803 ft 421 kts 275°
2026-05-06 12:56 25.06802 101.08124 23812 ft 422 kts 275°
2026-05-06 12:56 25.07086 101.04898 23824 ft 420 kts 275°
2026-05-06 12:57 25.07367 101.01694 23834 ft 420 kts 275°
2026-05-06 12:57 25.07645 100.98521 23845 ft 421 kts 275°
2026-05-06 12:57 25.07927 100.95290 23835 ft 421 kts 275°
2026-05-06 12:57 25.08206 100.92088 23821 ft 420 kts 275°
2026-05-06 12:58 25.08482 100.88911 23804 ft 421 kts 275°
2026-05-06 12:58 25.08760 100.85696 23787 ft 420 kts 275°
2026-05-06 12:58 25.09035 100.82520 23774 ft 419 kts 275°
2026-05-06 12:58 25.09312 100.79314 23765 ft 419 kts 275°
2026-05-06 12:59 25.09584 100.76148 23759 ft 418 kts 275°
2026-05-06 12:59 25.09858 100.72948 23752 ft 418 kts 275°
2026-05-06 12:59 25.10132 100.69747 23752 ft 418 kts 275°
2026-05-06 12:59 25.10405 100.66547 23753 ft 418 kts 275°
2026-05-06 13:00 25.10675 100.63373 23753 ft 419 kts 275°
2026-05-06 13:00 25.10946 100.60190 23759 ft 417 kts 275°
2026-05-06 13:00 25.11212 100.57037 23766 ft 416 kts 275°
2026-05-06 13:00 25.11482 100.53848 23771 ft 418 kts 275°
2026-05-06 13:01 25.11753 100.50638 23774 ft 417 kts 275°
2026-05-06 13:01 25.12113 100.47509 23776 ft 417 kts 278°
2026-05-06 13:01 25.12785 100.44393 23777 ft 419 kts 287°
2026-05-06 13:01 25.13925 100.41449 23780 ft 421 kts 296°
2026-05-06 13:02 25.15480 100.38683 23785 ft 433 kts 302°
2026-05-06 13:02 25.17360 100.36011 23780 ft 450 kts 308°
2026-05-06 13:02 25.19571 100.33593 23561 ft 443 kts 316°
2026-05-06 13:02 25.22076 100.31681 23009 ft 439 kts 326°
2026-05-06 13:03 25.24843 100.30209 22211 ft 441 kts 334°
2026-05-06 13:03 25.27760 100.29084 21274 ft 447 kts 340°
2026-05-06 13:03 25.30779 100.28392 20575 ft 445 kts 349°
2026-05-06 13:03 25.33885 100.28267 19929 ft 449 kts 358°
2026-05-06 13:04 25.36965 100.28493 19201 ft 443 kts
2026-05-06 13:04 25.40016 100.28883 18460 ft 435 kts
2026-05-06 13:04 25.42988 100.29342 17712 ft 429 kts
2026-05-06 13:04 25.45947 100.29816 16965 ft 429 kts
2026-05-06 13:05 25.48875 100.30275 16212 ft 422 kts
2026-05-06 13:05 25.51712 100.30708 15523 ft 404 kts
2026-05-06 13:05 25.54527 100.31117 15025 ft 404 kts
2026-05-06 13:05 25.57203 100.31497 14769 ft 375 kts
2026-05-06 13:06 25.59710 100.31850 14646 ft 353 kts
2026-05-06 13:06 25.62224 100.32194 14492 ft 359 kts
2026-05-06 13:06 25.64634 100.32636 14330 ft 346 kts
2026-05-06 13:06 25.66922 100.33296 14164 ft 332 kts 13°
2026-05-06 13:07 25.69099 100.34079 14004 ft 318 kts 15°
2026-05-06 13:07 25.71147 100.34871 13850 ft 305 kts 15°
2026-05-06 13:07 25.73094 100.35627 13704 ft 293 kts 15°
2026-05-06 13:07 25.75009 100.36357 13562 ft 282 kts 15°
2026-05-06 13:08 25.76827 100.37038 13410 ft 272 kts 15°
2026-05-06 13:08 25.78605 100.37696 13266 ft 262 kts 14°
2026-05-06 13:08 25.80313 100.38267 13121 ft 252 kts
2026-05-06 13:08 25.82007 100.38397 12917 ft 242 kts 349°
2026-05-06 13:09 25.83653 100.38024 12576 ft 242 kts 342°
2026-05-06 13:09 25.85191 100.37319 12286 ft 238 kts 324°
2026-05-06 13:09 25.86363 100.36064 12053 ft 231 kts 301°
2026-05-06 13:09 25.86885 100.34406 11754 ft 231 kts 274°
2026-05-06 13:10 25.86702 100.32625 11372 ft 235 kts 258°
2026-05-06 13:10 25.86333 100.30888 11055 ft 231 kts 255°
2026-05-06 13:10 25.85739 100.29267 10761 ft 224 kts 237°
2026-05-06 13:10 25.84582 100.28155 10541 ft 217 kts 204°
2026-05-06 13:11 25.83129 100.27880 10421 ft 211 kts 181°
2026-05-06 13:11 25.81696 100.28075 10297 ft 206 kts 171°
2026-05-06 13:11 25.80296 100.28411 10176 ft 200 kts 169°
2026-05-06 13:11 25.78960 100.28738 10077 ft 193 kts 170°
2026-05-06 13:12 25.77680 100.29031 9870 ft 182 kts 171°
2026-05-06 13:12 25.76472 100.29301 9559 ft 170 kts 171°
2026-05-06 13:12 25.75343 100.29553 9280 ft 159 kts 171°
2026-05-06 13:12 25.74296 100.29789 9059 ft 149 kts 171°
2026-05-06 13:13 25.73315 100.30009 8872 ft 139 kts 171°
2026-05-06 13:13 25.72394 100.30215 8666 ft 134 kts 171°
2026-05-06 13:13 25.71476 100.30422 8474 ft 134 kts 171°
2026-05-06 13:13 25.70567 100.30627 8281 ft 133 kts 171°
2026-05-06 13:14 25.69648 100.30830 8088 ft 134 kts 171°
2026-05-06 13:14 25.68739 100.31031 7895 ft 133 kts 170°
2026-05-06 13:14 25.67796 100.31241 7577 ft 143 kts 168°
2026-05-06 13:14 25.66825 100.31473 7256 ft 142 kts 169°
2026-05-06 13:15 25.65893 100.31683 7094 ft 135 kts 168°
2026-05-06 13:15 25.65033 100.31873 7084 ft 107 kts 169°
2026-05-06 13:15 25.64570 100.31976 7083 ft 21 kts 163°